{"data":{"norad_id":64299,"intl_designator":"2025-123J","name":"STARLINK-34378","alt_names":[],"object_type":"PAYLOAD","status":"ACTIVE","operator":null,"country":"US","launch_date":"2025-06-08","launch_site_code":"AFWTR","launch_vehicle":null,"mission":null,"orbit_class":"UNKNOWN","rcs_meters":null,"size_class":null,"mass_kg":null,"dimensions":null,"purposes":["comms"],"wikipedia_slug":null,"has_3d_model":false,"image_url":null,"decayed_at":null,"tle_current":{"epoch":"2026-09-20T14:31:11.321760Z","epoch_age_seconds":128515,"freshness":"FRESH","line1":"1 64299U 25123J   26263.60499215  .00013127  00000+0  46002-3 0  9996","line2":"2 64299  70.0000  60.6724 0003513 270.7414  89.3358 15.29599458 70876","mean_motion":15.29599458,"eccentricity":0.0003513,"inclination_deg":70,"raan_deg":60.6724,"arg_perigee_deg":270.7414,"mean_anomaly_deg":89.3358,"bstar":0.00046002,"rev_number":7087,"period_min":94.142292772701,"perigee_km":474.60055351628,"apogee_km":479.41697893163,"semimajor_km":6855.145766224,"source":"CELESTRAK","updated_at":"2026-09-21T09:00:35.306507Z"}}}